Data supplied by UK-AIR on 21/3/2009
All Data GMT hour ending 
Status: R =Ratified P=Provisional,P*=As supplied
,,Glasgow City Chambers,,,,,,,,,,,,,,,,,,,,,,,
Date,time,"Nitric oxide",status,unit,"Nitrogen dioxide",status,unit,"Nitrogen oxides as nitrogen dioxide",status,unit
 
01-01-2008,01:00,9,R,ugm-3,46,R,ugm-3,59,R,ugm-3
01-01-2008,02:00,11,R,ugm-3,53,R,ugm-3,71,R,ugm-3
01-01-2008,03:00,18,R,ugm-3,57,R,ugm-3,84,R,ugm-3
01-01-2008,04:00,18,R,ugm-3,48,R,ugm-3,74,R,ugm-3
01-01-2008,05:00,11,R,ugm-3,46,R,ugm-3,63,R,ugm-3
01-01-2008,06:00,6,R,ugm-3,42,R,ugm-3,52,R,ugm-3
01-01-2008,07:00,28,R,ugm-3,50,R,ugm-3,92,R,ugm-3
01-01-2008,08:00,26,R,ugm-3,46,R,ugm-3,86,R,ugm-3
01-01-2008,09:00,23,R,ugm-3,50,R,ugm-3,84,R,ugm-3
01-01-2008,10:00,26,R,ugm-3,48,R,ugm-3,88,R,ugm-3
01-01-2008,11:00,21,R,ugm-3,42,R,ugm-3,74,R,ugm-3
01-01-2008,12:00,19,R,ugm-3,40,R,ugm-3,69,R,ugm-3
01-01-2008,13:00,24,R,ugm-3,42,R,ugm-3,78,R,ugm-3
01-01-2008,14:00,31,R,ugm-3,42,R,ugm-3,90,R,ugm-3
01-01-2008,15:00,36,R,ugm-3,48,R,ugm-3,103,R,ugm-3
01-01-2008,16:00,36,R,ugm-3,48,R,ugm-3,103,R,ugm-3
01-01-2008,17:00,35,R,ugm-3,48,R,ugm-3,101,R,ugm-3
01-01-2008,18:00,28,R,ugm-3,46,R,ugm-3,88,R,ugm-3
01-01-2008,19:00,25,R,ugm-3,42,R,ugm-3,80,R,ugm-3
01-01-2008,20:00,25,R,ugm-3,44,R,ugm-3,82,R,ugm-3
01-01-2008,21:00,33,R,ugm-3,50,R,ugm-3,99,R,ugm-3
01-01-2008,22:00,33,R,ugm-3,52,R,ugm-3,101,R,ugm-3
01-01-2008,23:00,20,R,ugm-3,42,R,ugm-3,73,R,ugm-3
01-01-2008,24:00,26,R,ugm-3,46,R,ugm-3,86,R,ugm-3
02-01-2008,01:00,30,R,ugm-3,40,R,ugm-3,86,R,ugm-3
02-01-2008,02:00,8,R,ugm-3,42,R,ugm-3,53,R,ugm-3
02-01-2008,03:00,1,R,ugm-3,29,R,ugm-3,31,R,ugm-3
02-01-2008,04:00,3,R,ugm-3,23,R,ugm-3,27,R,ugm-3
02-01-2008,05:00,3,R,ugm-3,17,R,ugm-3,21,R,ugm-3
02-01-2008,06:00,4,R,ugm-3,19,R,ugm-3,25,R,ugm-3
02-01-2008,07:00,8,R,ugm-3,27,R,ugm-3,38,R,ugm-3
02-01-2008,08:00,10,R,ugm-3,31,R,ugm-3,46,R,ugm-3
02-01-2008,09:00,11,R,ugm-3,32,R,ugm-3,50,R,ugm-3
02-01-2008,10:00,15,R,ugm-3,50,R,ugm-3,73,R,ugm-3
02-01-2008,11:00,18,R,ugm-3,44,R,ugm-3,71,R,ugm-3
02-01-2008,12:00,20,R,ugm-3,36,R,ugm-3,67,R,ugm-3
02-01-2008,13:00,16,R,ugm-3,32,R,ugm-3,57,R,ugm-3
02-01-2008,14:00,15,R,ugm-3,31,R,ugm-3,53,R,ugm-3
02-01-2008,15:00,25,R,ugm-3,42,R,ugm-3,80,R,ugm-3
02-01-2008,16:00,16,R,ugm-3,34,R,ugm-3,59,R,ugm-3
02-01-2008,17:00,18,R,ugm-3,40,R,ugm-3,67,R,ugm-3
02-01-2008,18:00,16,R,ugm-3,38,R,ugm-3,63,R,ugm-3
02-01-2008,19:00,16,R,ugm-3,42,R,ugm-3,67,R,ugm-3
02-01-2008,20:00,9,R,ugm-3,34,R,ugm-3,48,R,ugm-3
02-01-2008,21:00,11,R,ugm-3,32,R,ugm-3,50,R,ugm-3
02-01-2008,22:00,9,R,ugm-3,27,R,ugm-3,40,R,ugm-3
02-01-2008,23:00,10,R,ugm-3,29,R,ugm-3,44,R,ugm-3
02-01-2008,24:00,6,R,ugm-3,25,R,ugm-3,34,R,ugm-3
03-01-2008,01:00,9,R,ugm-3,21,R,ugm-3,34,R,ugm-3
03-01-2008,02:00,5,R,ugm-3,27,R,ugm-3,34,R,ugm-3
03-01-2008,03:00,3,R,ugm-3,19,R,ugm-3,23,R,ugm-3
03-01-2008,04:00,3,R,ugm-3,21,R,ugm-3,25,R,ugm-3
03-01-2008,05:00,3,R,ugm-3,19,R,ugm-3,23,R,ugm-3
03-01-2008,06:00,9,R,ugm-3,31,R,ugm-3,44,R,ugm-3
03-01-2008,07:00,18,R,ugm-3,42,R,ugm-3,69,R,ugm-3
03-01-2008,08:00,35,R,ugm-3,59,R,ugm-3,113,R,ugm-3
03-01-2008,09:00,39,R,ugm-3,57,R,ugm-3,117,R,ugm-3
03-01-2008,10:00,31,R,ugm-3,50,R,ugm-3,97,R,ugm-3
03-01-2008,11:00,36,R,ugm-3,61,R,ugm-3,117,R,ugm-3
03-01-2008,12:00,28,R,ugm-3,48,R,ugm-3,90,R,ugm-3
03-01-2008,13:00,36,R,ugm-3,55,R,ugm-3,111,R,ugm-3
03-01-2008,14:00,45,R,ugm-3,61,R,ugm-3,130,R,ugm-3
03-01-2008,15:00,36,R,ugm-3,57,R,ugm-3,113,R,ugm-3
03-01-2008,16:00,30,R,ugm-3,55,R,ugm-3,101,R,ugm-3
03-01-2008,17:00,33,R,ugm-3,59,R,ugm-3,109,R,ugm-3
03-01-2008,18:00,35,R,ugm-3,59,R,ugm-3,113,R,ugm-3
03-01-2008,19:00,28,R,ugm-3,55,R,ugm-3,97,R,ugm-3
03-01-2008,20:00,18,R,ugm-3,42,R,ugm-3,69,R,ugm-3
03-01-2008,21:00,16,R,ugm-3,40,R,ugm-3,65,R,ugm-3
03-01-2008,22:00,15,R,ugm-3,38,R,ugm-3,61,R,ugm-3
03-01-2008,23:00,13,R,ugm-3,34,R,ugm-3,53,R,ugm-3
03-01-2008,24:00,15,R,ugm-3,42,R,ugm-3,65,R,ugm-3
04-01-2008,01:00,5,R,ugm-3,29,R,ugm-3,36,R,ugm-3
04-01-2008,02:00,5,R,ugm-3,31,R,ugm-3,38,R,ugm-3
04-01-2008,03:00,6,R,ugm-3,31,R,ugm-3,40,R,ugm-3
04-01-2008,04:00,5,R,ugm-3,27,R,ugm-3,34,R,ugm-3
04-01-2008,05:00,18,R,ugm-3,34,R,ugm-3,61,R,ugm-3
04-01-2008,06:00,9,R,ugm-3,34,R,ugm-3,48,R,ugm-3
04-01-2008,07:00,29,R,ugm-3,50,R,ugm-3,94,R,ugm-3
04-01-2008,08:00,46,R,ugm-3,59,R,ugm-3,130,R,ugm-3
04-01-2008,09:00,70,R,ugm-3,67,R,ugm-3,174,R,ugm-3
04-01-2008,10:00,50,R,ugm-3,53,R,ugm-3,130,R,ugm-3
04-01-2008,11:00,16,R,ugm-3,40,R,ugm-3,65,R,ugm-3
04-01-2008,12:00,39,R,ugm-3,57,R,ugm-3,117,R,ugm-3
04-01-2008,13:00,39,R,ugm-3,61,R,ugm-3,120,R,ugm-3
04-01-2008,14:00,21,R,ugm-3,44,R,ugm-3,76,R,ugm-3
04-01-2008,15:00,60,R,ugm-3,74,R,ugm-3,166,R,ugm-3
04-01-2008,16:00,39,R,ugm-3,53,R,ugm-3,113,R,ugm-3
04-01-2008,17:00,29,R,ugm-3,52,R,ugm-3,96,R,ugm-3
04-01-2008,18:00,36,R,ugm-3,52,R,ugm-3,107,R,ugm-3
04-01-2008,19:00,13,R,ugm-3,36,R,ugm-3,55,R,ugm-3
04-01-2008,20:00,15,R,ugm-3,38,R,ugm-3,61,R,ugm-3
04-01-2008,21:00,15,R,ugm-3,44,R,ugm-3,67,R,ugm-3
04-01-2008,22:00,9,R,ugm-3,44,R,ugm-3,57,R,ugm-3
04-01-2008,23:00,5,R,ugm-3,38,R,ugm-3,46,R,ugm-3
04-01-2008,24:00,6,R,ugm-3,38,R,ugm-3,48,R,ugm-3
05-01-2008,01:00,4,R,ugm-3,31,R,ugm-3,36,R,ugm-3
05-01-2008,02:00,3,R,ugm-3,27,R,ugm-3,31,R,ugm-3
05-01-2008,03:00,3,R,ugm-3,19,R,ugm-3,23,R,ugm-3
05-01-2008,04:00,1,R,ugm-3,11,R,ugm-3,13,R,ugm-3
05-01-2008,05:00,0,R,ugm-3,8,R,ugm-3,8,R,ugm-3
05-01-2008,06:00,1,R,ugm-3,11,R,ugm-3,13,R,ugm-3
05-01-2008,07:00,4,R,ugm-3,19,R,ugm-3,25,R,ugm-3
05-01-2008,08:00,1,R,ugm-3,19,R,ugm-3,21,R,ugm-3
05-01-2008,09:00,5,R,ugm-3,21,R,ugm-3,29,R,ugm-3
05-01-2008,10:00,4,R,ugm-3,25,R,ugm-3,31,R,ugm-3
05-01-2008,11:00,5,R,ugm-3,21,R,ugm-3,29,R,ugm-3
05-01-2008,12:00,4,R,ugm-3,21,R,ugm-3,27,R,ugm-3
05-01-2008,13:00,6,R,ugm-3,25,R,ugm-3,34,R,ugm-3
05-01-2008,14:00,9,R,ugm-3,29,R,ugm-3,42,R,ugm-3
05-01-2008,15:00,18,R,ugm-3,52,R,ugm-3,78,R,ugm-3
05-01-2008,16:00,16,R,ugm-3,50,R,ugm-3,74,R,ugm-3
05-01-2008,17:00,28,R,ugm-3,73,R,ugm-3,115,R,ugm-3
05-01-2008,18:00,9,R,ugm-3,42,R,ugm-3,55,R,ugm-3
05-01-2008,19:00,6,R,ugm-3,32,R,ugm-3,42,R,ugm-3
05-01-2008,20:00,6,R,ugm-3,25,R,ugm-3,34,R,ugm-3
05-01-2008,21:00,5,R,ugm-3,19,R,ugm-3,27,R,ugm-3
05-01-2008,22:00,5,R,ugm-3,21,R,ugm-3,29,R,ugm-3
05-01-2008,23:00,6,R,ugm-3,25,R,ugm-3,34,R,ugm-3
05-01-2008,24:00,8,R,ugm-3,31,R,ugm-3,42,R,ugm-3
06-01-2008,01:00,5,R,ugm-3,25,R,ugm-3,32,R,ugm-3
06-01-2008,02:00,4,R,ugm-3,27,R,ugm-3,32,R,ugm-3
06-01-2008,03:00,9,R,ugm-3,32,R,ugm-3,46,R,ugm-3
06-01-2008,04:00,8,R,ugm-3,32,R,ugm-3,44,R,ugm-3
06-01-2008,05:00,3,R,ugm-3,19,R,ugm-3,23,R,ugm-3
06-01-2008,06:00,1,R,ugm-3,15,R,ugm-3,17,R,ugm-3
06-01-2008,07:00,5,R,ugm-3,19,R,ugm-3,27,R,ugm-3
06-01-2008,08:00,4,R,ugm-3,27,R,ugm-3,32,R,ugm-3
06-01-2008,09:00,8,R,ugm-3,38,R,ugm-3,50,R,ugm-3
06-01-2008,10:00,6,R,ugm-3,25,R,ugm-3,34,R,ugm-3
06-01-2008,11:00,5,R,ugm-3,25,R,ugm-3,32,R,ugm-3
06-01-2008,12:00,6,R,ugm-3,27,R,ugm-3,36,R,ugm-3
06-01-2008,13:00,8,R,ugm-3,29,R,ugm-3,40,R,ugm-3
06-01-2008,14:00,11,R,ugm-3,31,R,ugm-3,48,R,ugm-3
06-01-2008,15:00,11,R,ugm-3,48,R,ugm-3,65,R,ugm-3
06-01-2008,16:00,15,R,ugm-3,67,R,ugm-3,90,R,ugm-3
06-01-2008,17:00,36,R,ugm-3,84,R,ugm-3,139,R,ugm-3
06-01-2008,18:00,20,R,ugm-3,67,R,ugm-3,97,R,ugm-3
06-01-2008,19:00,11,R,ugm-3,55,R,ugm-3,73,R,ugm-3
06-01-2008,20:00,21,R,ugm-3,65,R,ugm-3,97,R,ugm-3
06-01-2008,21:00,28,R,ugm-3,74,R,ugm-3,117,R,ugm-3
06-01-2008,22:00,15,R,ugm-3,57,R,ugm-3,80,R,ugm-3
06-01-2008,23:00,18,R,ugm-3,61,R,ugm-3,88,R,ugm-3
06-01-2008,24:00,13,R,ugm-3,40,R,ugm-3,59,R,ugm-3
07-01-2008,01:00,5,R,ugm-3,23,R,ugm-3,31,R,ugm-3
07-01-2008,02:00,3,R,ugm-3,27,R,ugm-3,31,R,ugm-3
07-01-2008,03:00,4,R,ugm-3,27,R,ugm-3,32,R,ugm-3
07-01-2008,04:00,9,R,ugm-3,38,R,ugm-3,52,R,ugm-3
07-01-2008,05:00,20,R,ugm-3,59,R,ugm-3,90,R,ugm-3
07-01-2008,06:00,35,R,ugm-3,63,R,ugm-3,117,R,ugm-3
07-01-2008,07:00,49,R,ugm-3,78,R,ugm-3,153,R,ugm-3
07-01-2008,08:00,90,R,ugm-3,94,R,ugm-3,231,R,ugm-3
07-01-2008,09:00,123,R,ugm-3,103,R,ugm-3,290,R,ugm-3
07-01-2008,10:00,89,R,ugm-3,92,R,ugm-3,227,R,ugm-3
07-01-2008,11:00,75,R,ugm-3,92,R,ugm-3,206,R,ugm-3
07-01-2008,12:00,69,R,ugm-3,90,R,ugm-3,195,R,ugm-3
07-01-2008,13:00,40,R,ugm-3,80,R,ugm-3,141,R,ugm-3
07-01-2008,14:00,40,R,ugm-3,80,R,ugm-3,141,R,ugm-3
07-01-2008,15:00,28,R,ugm-3,65,R,ugm-3,107,R,ugm-3
07-01-2008,16:00,26,R,ugm-3,73,R,ugm-3,113,R,ugm-3
07-01-2008,17:00,25,R,ugm-3,65,R,ugm-3,103,R,ugm-3
07-01-2008,18:00,24,R,ugm-3,76,R,ugm-3,113,R,ugm-3
07-01-2008,19:00,11,R,ugm-3,57,R,ugm-3,74,R,ugm-3
07-01-2008,20:00,6,R,ugm-3,36,R,ugm-3,46,R,ugm-3
07-01-2008,21:00,4,R,ugm-3,25,R,ugm-3,31,R,ugm-3
07-01-2008,22:00,3,R,ugm-3,19,R,ugm-3,23,R,ugm-3
07-01-2008,23:00,3,R,ugm-3,17,R,ugm-3,21,R,ugm-3
07-01-2008,24:00,3,R,ugm-3,13,R,ugm-3,17,R,ugm-3
08-01-2008,01:00,1,R,ugm-3,8,R,ugm-3,10,R,ugm-3
08-01-2008,02:00,1,R,ugm-3,13,R,ugm-3,15,R,ugm-3
08-01-2008,03:00,0,R,ugm-3,11,R,ugm-3,11,R,ugm-3
08-01-2008,04:00,1,R,ugm-3,11,R,ugm-3,13,R,ugm-3
08-01-2008,05:00,1,R,ugm-3,10,R,ugm-3,11,R,ugm-3
08-01-2008,06:00,3,R,ugm-3,19,R,ugm-3,23,R,ugm-3
08-01-2008,07:00,8,R,ugm-3,38,R,ugm-3,50,R,ugm-3
08-01-2008,08:00,24,R,ugm-3,65,R,ugm-3,101,R,ugm-3
08-01-2008,09:00,51,R,ugm-3,92,R,ugm-3,170,R,ugm-3
08-01-2008,10:00,39,R,ugm-3,80,R,ugm-3,139,R,ugm-3
08-01-2008,11:00,69,R,ugm-3,90,R,ugm-3,195,R,ugm-3
08-01-2008,12:00,80,R,ugm-3,90,R,ugm-3,212,R,ugm-3
08-01-2008,13:00,73,R,ugm-3,92,R,ugm-3,202,R,ugm-3
08-01-2008,14:00,40,R,ugm-3,74,R,ugm-3,136,R,ugm-3
08-01-2008,15:00,41,R,ugm-3,74,R,ugm-3,138,R,ugm-3
08-01-2008,16:00,65,R,ugm-3,97,R,ugm-3,197,R,ugm-3
08-01-2008,17:00,68,R,ugm-3,86,R,ugm-3,189,R,ugm-3
08-01-2008,18:00,31,R,ugm-3,69,R,ugm-3,117,R,ugm-3
08-01-2008,19:00,28,R,ugm-3,65,R,ugm-3,107,R,ugm-3
08-01-2008,20:00,4,R,ugm-3,25,R,ugm-3,31,R,ugm-3
08-01-2008,21:00,1,R,ugm-3,15,R,ugm-3,17,R,ugm-3
08-01-2008,22:00,1,R,ugm-3,11,R,ugm-3,13,R,ugm-3
08-01-2008,23:00,1,R,ugm-3,6,R,ugm-3,8,R,ugm-3
08-01-2008,24:00,1,R,ugm-3,4,R,ugm-3,6,R,ugm-3
09-01-2008,01:00,1,R,ugm-3,4,R,ugm-3,6,R,ugm-3
09-01-2008,02:00,0,R,ugm-3,6,R,ugm-3,6,R,ugm-3
09-01-2008,03:00,0,R,ugm-3,6,R,ugm-3,6,R,ugm-3
09-01-2008,04:00,0,R,ugm-3,4,R,ugm-3,4,R,ugm-3
09-01-2008,05:00,1,R,ugm-3,4,R,ugm-3,6,R,ugm-3
09-01-2008,06:00,1,R,ugm-3,8,R,ugm-3,10,R,ugm-3
09-01-2008,07:00,4,R,ugm-3,15,R,ugm-3,21,R,ugm-3
09-01-2008,08:00,11,R,ugm-3,31,R,ugm-3,48,R,ugm-3
09-01-2008,09:00,14,R,ugm-3,40,R,ugm-3,61,R,ugm-3
09-01-2008,10:00,30,R,ugm-3,48,R,ugm-3,94,R,ugm-3
09-01-2008,11:00,33,R,ugm-3,52,R,ugm-3,101,R,ugm-3
09-01-2008,12:00,24,R,ugm-3,50,R,ugm-3,86,R,ugm-3
09-01-2008,13:00,14,R,ugm-3,40,R,ugm-3,61,R,ugm-3
09-01-2008,14:00,18,R,ugm-3,40,R,ugm-3,67,R,ugm-3
09-01-2008,15:00,24,R,ugm-3,50,R,ugm-3,86,R,ugm-3
09-01-2008,16:00,23,R,ugm-3,61,R,ugm-3,96,R,ugm-3
09-01-2008,17:00,36,R,ugm-3,78,R,ugm-3,134,R,ugm-3
09-01-2008,18:00,16,R,ugm-3,50,R,ugm-3,74,R,ugm-3
09-01-2008,19:00,9,R,ugm-3,32,R,ugm-3,46,R,ugm-3
09-01-2008,20:00,9,R,ugm-3,40,R,ugm-3,53,R,ugm-3
09-01-2008,21:00,8,R,ugm-3,40,R,ugm-3,52,R,ugm-3
09-01-2008,22:00,9,R,ugm-3,38,R,ugm-3,52,R,ugm-3
09-01-2008,23:00,9,R,ugm-3,44,R,ugm-3,57,R,ugm-3
09-01-2008,24:00,13,R,ugm-3,57,R,ugm-3,76,R,ugm-3
10-01-2008,01:00,10,R,ugm-3,53,R,ugm-3,69,R,ugm-3
10-01-2008,02:00,13,R,ugm-3,63,R,ugm-3,82,R,ugm-3
10-01-2008,03:00,4,R,ugm-3,46,R,ugm-3,52,R,ugm-3
10-01-2008,04:00,5,R,ugm-3,42,R,ugm-3,50,R,ugm-3
10-01-2008,05:00,4,R,ugm-3,34,R,ugm-3,40,R,ugm-3
10-01-2008,06:00,13,R,ugm-3,40,R,ugm-3,59,R,ugm-3
10-01-2008,07:00,36,R,ugm-3,67,R,ugm-3,122,R,ugm-3
10-01-2008,08:00,109,R,ugm-3,97,R,ugm-3,264,R,ugm-3
10-01-2008,09:00,109,R,ugm-3,101,R,ugm-3,267,R,ugm-3
10-01-2008,10:00,138,R,ugm-3,105,R,ugm-3,315,R,ugm-3
10-01-2008,11:00,166,R,ugm-3,105,R,ugm-3,359,R,ugm-3
10-01-2008,12:00,194,R,ugm-3,107,R,ugm-3,403,R,ugm-3
10-01-2008,13:00,123,R,ugm-3,86,R,ugm-3,273,R,ugm-3
10-01-2008,14:00,75,R,ugm-3,78,R,ugm-3,193,R,ugm-3
10-01-2008,15:00,133,R,ugm-3,96,R,ugm-3,298,R,ugm-3
10-01-2008,16:00,148,R,ugm-3,101,R,ugm-3,327,R,ugm-3
10-01-2008,17:00,39,R,ugm-3,78,R,ugm-3,138,R,ugm-3
10-01-2008,18:00,21,R,ugm-3,65,R,ugm-3,97,R,ugm-3
10-01-2008,19:00,16,R,ugm-3,53,R,ugm-3,78,R,ugm-3
10-01-2008,20:00,10,R,ugm-3,40,R,ugm-3,55,R,ugm-3
10-01-2008,21:00,9,R,ugm-3,32,R,ugm-3,46,R,ugm-3
10-01-2008,22:00,6,R,ugm-3,29,R,ugm-3,38,R,ugm-3
10-01-2008,23:00,8,R,ugm-3,27,R,ugm-3,38,R,ugm-3
10-01-2008,24:00,6,R,ugm-3,29,R,ugm-3,38,R,ugm-3
11-01-2008,01:00,5,R,ugm-3,21,R,ugm-3,29,R,ugm-3
11-01-2008,02:00,3,R,ugm-3,25,R,ugm-3,29,R,ugm-3
11-01-2008,03:00,3,R,ugm-3,21,R,ugm-3,25,R,ugm-3
11-01-2008,04:00,3,R,ugm-3,21,R,ugm-3,25,R,ugm-3
11-01-2008,05:00,1,R,ugm-3,17,R,ugm-3,19,R,ugm-3
11-01-2008,06:00,1,R,ugm-3,27,R,ugm-3,29,R,ugm-3
11-01-2008,07:00,16,R,ugm-3,55,R,ugm-3,80,R,ugm-3
11-01-2008,08:00,55,R,ugm-3,80,R,ugm-3,164,R,ugm-3
11-01-2008,09:00,90,R,ugm-3,92,R,ugm-3,229,R,ugm-3
11-01-2008,10:00,114,R,ugm-3,97,R,ugm-3,271,R,ugm-3
11-01-2008,11:00,145,R,ugm-3,111,R,ugm-3,332,R,ugm-3
11-01-2008,12:00,148,R,ugm-3,105,R,ugm-3,330,R,ugm-3
11-01-2008,13:00,125,R,ugm-3,99,R,ugm-3,290,R,ugm-3
11-01-2008,14:00,89,R,ugm-3,97,R,ugm-3,233,R,ugm-3
11-01-2008,15:00,83,R,ugm-3,88,R,ugm-3,214,R,ugm-3
11-01-2008,16:00,136,R,ugm-3,103,R,ugm-3,311,R,ugm-3
11-01-2008,17:00,189,R,ugm-3,117,R,ugm-3,405,R,ugm-3
11-01-2008,18:00,291,R,ugm-3,134,R,ugm-3,579,R,ugm-3
11-01-2008,19:00,246,R,ugm-3,128,R,ugm-3,504,R,ugm-3
11-01-2008,20:00,245,R,ugm-3,122,R,ugm-3,497,R,ugm-3
11-01-2008,21:00,229,R,ugm-3,124,R,ugm-3,474,R,ugm-3
11-01-2008,22:00,234,R,ugm-3,117,R,ugm-3,474,R,ugm-3
11-01-2008,23:00,200,R,ugm-3,103,R,ugm-3,409,R,ugm-3
11-01-2008,24:00,143,R,ugm-3,86,R,ugm-3,304,R,ugm-3
12-01-2008,01:00,141,R,ugm-3,90,R,ugm-3,306,R,ugm-3
12-01-2008,02:00,81,R,ugm-3,76,R,ugm-3,201,R,ugm-3
12-01-2008,03:00,83,R,ugm-3,69,R,ugm-3,195,R,ugm-3
12-01-2008,04:00,65,R,ugm-3,65,R,ugm-3,164,R,ugm-3
12-01-2008,05:00,50,R,ugm-3,61,R,ugm-3,138,R,ugm-3
12-01-2008,06:00,40,R,ugm-3,59,R,ugm-3,120,R,ugm-3
12-01-2008,07:00,106,R,ugm-3,67,R,ugm-3,229,R,ugm-3
12-01-2008,08:00,140,R,ugm-3,74,R,ugm-3,288,R,ugm-3
12-01-2008,09:00,208,R,ugm-3,90,R,ugm-3,407,R,ugm-3
12-01-2008,10:00,221,R,ugm-3,97,R,ugm-3,435,R,ugm-3
12-01-2008,11:00,224,R,ugm-3,92,R,ugm-3,434,R,ugm-3
12-01-2008,12:00,234,R,ugm-3,99,R,ugm-3,456,R,ugm-3
12-01-2008,13:00,183,R,ugm-3,101,R,ugm-3,380,R,ugm-3
12-01-2008,14:00,193,R,ugm-3,97,R,ugm-3,392,R,ugm-3
12-01-2008,15:00,205,R,ugm-3,101,R,ugm-3,414,R,ugm-3
12-01-2008,16:00,68,R,ugm-3,90,R,ugm-3,193,R,ugm-3
12-01-2008,17:00,76,R,ugm-3,90,R,ugm-3,206,R,ugm-3
12-01-2008,18:00,76,R,ugm-3,92,R,ugm-3,208,R,ugm-3
12-01-2008,19:00,68,R,ugm-3,74,R,ugm-3,178,R,ugm-3
12-01-2008,20:00,46,R,ugm-3,67,R,ugm-3,138,R,ugm-3
12-01-2008,21:00,44,R,ugm-3,69,R,ugm-3,136,R,ugm-3
12-01-2008,22:00,41,R,ugm-3,71,R,ugm-3,134,R,ugm-3
12-01-2008,23:00,33,R,ugm-3,65,R,ugm-3,115,R,ugm-3
12-01-2008,24:00,24,R,ugm-3,50,R,ugm-3,86,R,ugm-3
13-01-2008,01:00,16,R,ugm-3,38,R,ugm-3,63,R,ugm-3
13-01-2008,02:00,13,R,ugm-3,34,R,ugm-3,53,R,ugm-3
13-01-2008,03:00,16,R,ugm-3,34,R,ugm-3,59,R,ugm-3
13-01-2008,04:00,14,R,ugm-3,38,R,ugm-3,59,R,ugm-3
13-01-2008,05:00,10,R,ugm-3,38,R,ugm-3,53,R,ugm-3
13-01-2008,06:00,1,R,ugm-3,17,R,ugm-3,19,R,ugm-3
13-01-2008,07:00,0,R,ugm-3,10,R,ugm-3,10,R,ugm-3
13-01-2008,08:00,1,R,ugm-3,11,R,ugm-3,13,R,ugm-3
13-01-2008,09:00,1,R,ugm-3,15,R,ugm-3,17,R,ugm-3
13-01-2008,10:00,3,R,ugm-3,21,R,ugm-3,25,R,ugm-3
13-01-2008,11:00,3,R,ugm-3,15,R,ugm-3,19,R,ugm-3
13-01-2008,12:00,3,R,ugm-3,15,R,ugm-3,19,R,ugm-3
13-01-2008,13:00,3,R,ugm-3,15,R,ugm-3,19,R,ugm-3
13-01-2008,14:00,3,R,ugm-3,15,R,ugm-3,19,R,ugm-3
13-01-2008,15:00,4,R,ugm-3,19,R,ugm-3,25,R,ugm-3
13-01-2008,16:00,4,R,ugm-3,25,R,ugm-3,31,R,ugm-3
13-01-2008,17:00,3,R,ugm-3,27,R,ugm-3,31,R,ugm-3
13-01-2008,18:00,5,R,ugm-3,34,R,ugm-3,42,R,ugm-3
13-01-2008,19:00,3,R,ugm-3,23,R,ugm-3,27,R,ugm-3
13-01-2008,20:00,8,R,ugm-3,44,R,ugm-3,55,R,ugm-3
13-01-2008,21:00,15,R,ugm-3,59,R,ugm-3,82,R,ugm-3
13-01-2008,22:00,11,R,ugm-3,48,R,ugm-3,65,R,ugm-3
13-01-2008,23:00,14,R,ugm-3,53,R,ugm-3,74,R,ugm-3
13-01-2008,24:00,11,R,ugm-3,55,R,ugm-3,73,R,ugm-3
14-01-2008,01:00,10,R,ugm-3,52,R,ugm-3,67,R,ugm-3
14-01-2008,02:00,6,R,ugm-3,40,R,ugm-3,50,R,ugm-3
14-01-2008,03:00,3,R,ugm-3,34,R,ugm-3,38,R,ugm-3
14-01-2008,04:00,1,R,ugm-3,23,R,ugm-3,25,R,ugm-3
14-01-2008,05:00,1,R,ugm-3,19,R,ugm-3,21,R,ugm-3
14-01-2008,06:00,13,R,ugm-3,48,R,ugm-3,67,R,ugm-3
14-01-2008,07:00,23,R,ugm-3,65,R,ugm-3,99,R,ugm-3
14-01-2008,08:00,114,R,ugm-3,101,R,ugm-3,275,R,ugm-3
14-01-2008,09:00,100,R,ugm-3,99,R,ugm-3,252,R,ugm-3
14-01-2008,10:00,106,R,ugm-3,101,R,ugm-3,264,R,ugm-3
14-01-2008,11:00,81,R,ugm-3,88,R,ugm-3,212,R,ugm-3
14-01-2008,12:00,100,R,ugm-3,88,R,ugm-3,241,R,ugm-3
14-01-2008,13:00,98,R,ugm-3,88,R,ugm-3,237,R,ugm-3
14-01-2008,14:00,120,R,ugm-3,97,R,ugm-3,281,R,ugm-3
14-01-2008,15:00,71,R,ugm-3,92,R,ugm-3,201,R,ugm-3
14-01-2008,16:00,74,R,ugm-3,88,R,ugm-3,201,R,ugm-3
14-01-2008,17:00,79,R,ugm-3,88,R,ugm-3,208,R,ugm-3
14-01-2008,18:00,69,R,ugm-3,88,R,ugm-3,193,R,ugm-3
14-01-2008,19:00,89,R,ugm-3,88,R,ugm-3,223,R,ugm-3
14-01-2008,20:00,70,R,ugm-3,78,R,ugm-3,185,R,ugm-3
14-01-2008,21:00,40,R,ugm-3,71,R,ugm-3,132,R,ugm-3
14-01-2008,22:00,28,R,ugm-3,59,R,ugm-3,101,R,ugm-3
14-01-2008,23:00,29,R,ugm-3,59,R,ugm-3,103,R,ugm-3
14-01-2008,24:00,38,R,ugm-3,65,R,ugm-3,122,R,ugm-3
15-01-2008,01:00,39,R,ugm-3,67,R,ugm-3,126,R,ugm-3
15-01-2008,02:00,18,R,ugm-3,59,R,ugm-3,86,R,ugm-3
15-01-2008,03:00,1,R,ugm-3,17,R,ugm-3,19,R,ugm-3
15-01-2008,04:00,1,R,ugm-3,19,R,ugm-3,21,R,ugm-3
15-01-2008,05:00,1,R,ugm-3,23,R,ugm-3,25,R,ugm-3
15-01-2008,06:00,15,R,ugm-3,57,R,ugm-3,80,R,ugm-3
15-01-2008,07:00,51,R,ugm-3,78,R,ugm-3,157,R,ugm-3
15-01-2008,08:00,136,R,ugm-3,117,R,ugm-3,325,R,ugm-3
15-01-2008,09:00,146,R,ugm-3,105,R,ugm-3,329,R,ugm-3
15-01-2008,10:00,129,R,ugm-3,101,R,ugm-3,298,R,ugm-3
15-01-2008,11:00,,,,,,,,,
15-01-2008,12:00,,,,,,,,,
15-01-2008,13:00,,,,,,,,,
15-01-2008,14:00,56,R,ugm-3,71,R,ugm-3,157,R,ugm-3
15-01-2008,15:00,54,R,ugm-3,67,R,ugm-3,149,R,ugm-3
15-01-2008,16:00,54,R,ugm-3,76,R,ugm-3,159,R,ugm-3
15-01-2008,17:00,43,R,ugm-3,74,R,ugm-3,139,R,ugm-3
15-01-2008,18:00,36,R,ugm-3,73,R,ugm-3,128,R,ugm-3
15-01-2008,19:00,19,R,ugm-3,50,R,ugm-3,78,R,ugm-3
15-01-2008,20:00,21,R,ugm-3,59,R,ugm-3,92,R,ugm-3
15-01-2008,21:00,16,R,ugm-3,46,R,ugm-3,71,R,ugm-3
15-01-2008,22:00,19,R,ugm-3,48,R,ugm-3,76,R,ugm-3
15-01-2008,23:00,11,R,ugm-3,29,R,ugm-3,46,R,ugm-3
15-01-2008,24:00,9,R,ugm-3,31,R,ugm-3,44,R,ugm-3
16-01-2008,01:00,5,R,ugm-3,29,R,ugm-3,36,R,ugm-3
16-01-2008,02:00,3,R,ugm-3,19,R,ugm-3,23,R,ugm-3
16-01-2008,03:00,4,R,ugm-3,27,R,ugm-3,32,R,ugm-3
16-01-2008,04:00,3,R,ugm-3,29,R,ugm-3,32,R,ugm-3
16-01-2008,05:00,3,R,ugm-3,25,R,ugm-3,29,R,ugm-3
16-01-2008,06:00,10,R,ugm-3,42,R,ugm-3,57,R,ugm-3
16-01-2008,07:00,35,R,ugm-3,76,R,ugm-3,130,R,ugm-3
16-01-2008,08:00,124,R,ugm-3,113,R,ugm-3,302,R,ugm-3
16-01-2008,09:00,104,R,ugm-3,115,R,ugm-3,273,R,ugm-3
16-01-2008,10:00,118,R,ugm-3,115,R,ugm-3,294,R,ugm-3
16-01-2008,11:00,100,R,ugm-3,105,R,ugm-3,258,R,ugm-3
16-01-2008,12:00,50,R,ugm-3,78,R,ugm-3,155,R,ugm-3
16-01-2008,13:00,45,R,ugm-3,76,R,ugm-3,145,R,ugm-3
16-01-2008,14:00,95,R,ugm-3,96,R,ugm-3,241,R,ugm-3
16-01-2008,15:00,108,R,ugm-3,96,R,ugm-3,260,R,ugm-3
16-01-2008,16:00,69,R,ugm-3,97,R,ugm-3,202,R,ugm-3
16-01-2008,17:00,125,R,ugm-3,118,R,ugm-3,309,R,ugm-3
16-01-2008,18:00,114,R,ugm-3,115,R,ugm-3,288,R,ugm-3
16-01-2008,19:00,159,R,ugm-3,122,R,ugm-3,365,R,ugm-3
16-01-2008,20:00,98,R,ugm-3,97,R,ugm-3,246,R,ugm-3
16-01-2008,21:00,225,R,ugm-3,130,R,ugm-3,474,R,ugm-3
16-01-2008,22:00,196,R,ugm-3,115,R,ugm-3,414,R,ugm-3
16-01-2008,23:00,105,R,ugm-3,88,R,ugm-3,248,R,ugm-3
16-01-2008,24:00,51,R,ugm-3,76,R,ugm-3,155,R,ugm-3
17-01-2008,01:00,49,R,ugm-3,76,R,ugm-3,151,R,ugm-3
17-01-2008,02:00,8,R,ugm-3,57,R,ugm-3,69,R,ugm-3
17-01-2008,03:00,6,R,ugm-3,46,R,ugm-3,55,R,ugm-3
17-01-2008,04:00,5,R,ugm-3,31,R,ugm-3,38,R,ugm-3
17-01-2008,05:00,4,R,ugm-3,29,R,ugm-3,34,R,ugm-3
17-01-2008,06:00,13,R,ugm-3,40,R,ugm-3,59,R,ugm-3
17-01-2008,07:00,23,R,ugm-3,50,R,ugm-3,84,R,ugm-3
17-01-2008,08:00,76,R,ugm-3,74,R,ugm-3,191,R,ugm-3
17-01-2008,09:00,55,R,ugm-3,73,R,ugm-3,157,R,ugm-3
17-01-2008,10:00,113,R,ugm-3,96,R,ugm-3,267,R,ugm-3
17-01-2008,11:00,89,R,ugm-3,80,R,ugm-3,216,R,ugm-3
17-01-2008,12:00,90,R,ugm-3,84,R,ugm-3,222,R,ugm-3
17-01-2008,13:00,93,R,ugm-3,84,R,ugm-3,225,R,ugm-3
17-01-2008,14:00,94,R,ugm-3,84,R,ugm-3,227,R,ugm-3
17-01-2008,15:00,104,R,ugm-3,78,R,ugm-3,237,R,ugm-3
17-01-2008,16:00,109,R,ugm-3,82,R,ugm-3,248,R,ugm-3
17-01-2008,17:00,115,R,ugm-3,78,R,ugm-3,254,R,ugm-3
17-01-2008,18:00,145,R,ugm-3,90,R,ugm-3,311,R,ugm-3
17-01-2008,19:00,178,R,ugm-3,101,R,ugm-3,372,R,ugm-3
17-01-2008,20:00,143,R,ugm-3,99,R,ugm-3,317,R,ugm-3
17-01-2008,21:00,128,R,ugm-3,99,R,ugm-3,294,R,ugm-3
17-01-2008,22:00,20,R,ugm-3,76,R,ugm-3,107,R,ugm-3
17-01-2008,23:00,6,R,ugm-3,48,R,ugm-3,57,R,ugm-3
17-01-2008,24:00,8,R,ugm-3,36,R,ugm-3,48,R,ugm-3
18-01-2008,01:00,5,R,ugm-3,27,R,ugm-3,34,R,ugm-3
18-01-2008,02:00,1,R,ugm-3,15,R,ugm-3,17,R,ugm-3
18-01-2008,03:00,1,R,ugm-3,15,R,ugm-3,17,R,ugm-3
18-01-2008,04:00,1,R,ugm-3,17,R,ugm-3,19,R,ugm-3
18-01-2008,05:00,0,R,ugm-3,15,R,ugm-3,15,R,ugm-3
18-01-2008,06:00,3,R,ugm-3,19,R,ugm-3,23,R,ugm-3
18-01-2008,07:00,5,R,ugm-3,27,R,ugm-3,34,R,ugm-3
18-01-2008,08:00,9,R,ugm-3,40,R,ugm-3,53,R,ugm-3
18-01-2008,09:00,11,R,ugm-3,42,R,ugm-3,59,R,ugm-3
18-01-2008,10:00,31,R,ugm-3,65,R,ugm-3,113,R,ugm-3
18-01-2008,11:00,39,R,ugm-3,86,R,ugm-3,145,R,ugm-3
18-01-2008,12:00,19,R,ugm-3,57,R,ugm-3,86,R,ugm-3
18-01-2008,13:00,33,R,ugm-3,57,R,ugm-3,107,R,ugm-3
18-01-2008,14:00,16,R,ugm-3,38,R,ugm-3,63,R,ugm-3
18-01-2008,15:00,16,R,ugm-3,36,R,ugm-3,61,R,ugm-3
18-01-2008,16:00,16,R,ugm-3,38,R,ugm-3,63,R,ugm-3
18-01-2008,17:00,14,R,ugm-3,42,R,ugm-3,63,R,ugm-3
18-01-2008,18:00,11,R,ugm-3,36,R,ugm-3,53,R,ugm-3
18-01-2008,19:00,6,R,ugm-3,21,R,ugm-3,31,R,ugm-3
18-01-2008,20:00,5,R,ugm-3,21,R,ugm-3,29,R,ugm-3
18-01-2008,21:00,4,R,ugm-3,23,R,ugm-3,29,R,ugm-3
18-01-2008,22:00,4,R,ugm-3,25,R,ugm-3,31,R,ugm-3
18-01-2008,23:00,5,R,ugm-3,29,R,ugm-3,36,R,ugm-3
18-01-2008,24:00,4,R,ugm-3,32,R,ugm-3,38,R,ugm-3
19-01-2008,01:00,5,R,ugm-3,32,R,ugm-3,40,R,ugm-3
19-01-2008,02:00,4,R,ugm-3,27,R,ugm-3,32,R,ugm-3
19-01-2008,03:00,4,R,ugm-3,27,R,ugm-3,32,R,ugm-3
19-01-2008,04:00,6,R,ugm-3,31,R,ugm-3,40,R,ugm-3
19-01-2008,05:00,3,R,ugm-3,23,R,ugm-3,27,R,ugm-3
19-01-2008,06:00,3,R,ugm-3,23,R,ugm-3,27,R,ugm-3
19-01-2008,07:00,5,R,ugm-3,34,R,ugm-3,42,R,ugm-3
19-01-2008,08:00,6,R,ugm-3,53,R,ugm-3,63,R,ugm-3
19-01-2008,09:00,23,R,ugm-3,67,R,ugm-3,101,R,ugm-3
19-01-2008,10:00,25,R,ugm-3,67,R,ugm-3,105,R,ugm-3
19-01-2008,11:00,26,R,ugm-3,65,R,ugm-3,105,R,ugm-3
19-01-2008,12:00,24,R,ugm-3,61,R,ugm-3,97,R,ugm-3
19-01-2008,13:00,20,R,ugm-3,57,R,ugm-3,88,R,ugm-3
19-01-2008,14:00,16,R,ugm-3,50,R,ugm-3,74,R,ugm-3
19-01-2008,15:00,13,R,ugm-3,50,R,ugm-3,69,R,ugm-3
19-01-2008,16:00,19,R,ugm-3,53,R,ugm-3,82,R,ugm-3
19-01-2008,17:00,14,R,ugm-3,42,R,ugm-3,63,R,ugm-3
19-01-2008,18:00,19,R,ugm-3,55,R,ugm-3,84,R,ugm-3
19-01-2008,19:00,19,R,ugm-3,59,R,ugm-3,88,R,ugm-3
19-01-2008,20:00,18,R,ugm-3,55,R,ugm-3,82,R,ugm-3
19-01-2008,21:00,15,R,ugm-3,63,R,ugm-3,86,R,ugm-3
19-01-2008,22:00,28,R,ugm-3,63,R,ugm-3,105,R,ugm-3
19-01-2008,23:00,18,R,ugm-3,57,R,ugm-3,84,R,ugm-3
19-01-2008,24:00,11,R,ugm-3,48,R,ugm-3,65,R,ugm-3
20-01-2008,01:00,6,R,ugm-3,38,R,ugm-3,48,R,ugm-3
20-01-2008,02:00,14,R,ugm-3,53,R,ugm-3,74,R,ugm-3
20-01-2008,03:00,16,R,ugm-3,48,R,ugm-3,73,R,ugm-3
20-01-2008,04:00,10,R,ugm-3,48,R,ugm-3,63,R,ugm-3
20-01-2008,05:00,6,R,ugm-3,38,R,ugm-3,48,R,ugm-3
20-01-2008,06:00,4,R,ugm-3,34,R,ugm-3,40,R,ugm-3
20-01-2008,07:00,5,R,ugm-3,40,R,ugm-3,48,R,ugm-3
20-01-2008,08:00,10,R,ugm-3,50,R,ugm-3,65,R,ugm-3
20-01-2008,09:00,13,R,ugm-3,48,R,ugm-3,67,R,ugm-3
20-01-2008,10:00,11,R,ugm-3,53,R,ugm-3,71,R,ugm-3
20-01-2008,11:00,15,R,ugm-3,53,R,ugm-3,76,R,ugm-3
20-01-2008,12:00,11,R,ugm-3,38,R,ugm-3,55,R,ugm-3
20-01-2008,13:00,14,R,ugm-3,50,R,ugm-3,71,R,ugm-3
20-01-2008,14:00,16,R,ugm-3,52,R,ugm-3,76,R,ugm-3
20-01-2008,15:00,14,R,ugm-3,46,R,ugm-3,67,R,ugm-3
20-01-2008,16:00,11,R,ugm-3,48,R,ugm-3,65,R,ugm-3
20-01-2008,17:00,14,R,ugm-3,59,R,ugm-3,80,R,ugm-3
20-01-2008,18:00,19,R,ugm-3,73,R,ugm-3,101,R,ugm-3